HAWK55 KNKX-KNKX

Flight info

Callsign HAWK55
Flight time N/A
Altitude 12500
Route NUC
Aircraft F35/M-SDFIRY/LB1

Departure

Time 2026-04-24 02:13
Airport Miramar Marine Corps Air Station - Mitscher Field (KNKX)

Arrival

Time N/A
Airport Miramar Marine Corps Air Station - Mitscher Field (KNKX)
Time Latitude Longitude Altitude Speed Heading
2026-04-24 02:08 32.87571 -117.12804 501 ft 0 kts 255°
2026-04-24 02:09 32.87569 -117.12816 500 ft 0 kts 255°
2026-04-24 02:10 32.87567 -117.12821 500 ft 4 kts 250°
2026-04-24 02:10 32.87529 -117.12834 501 ft 6 kts 170°
2026-04-24 02:10 32.87501 -117.12825 502 ft 1 kts 161°
2026-04-24 02:10 32.87500 -117.12825 502 ft 0 kts 160°
2026-04-24 02:11 32.87498 -117.12825 502 ft 3 kts 160°
2026-04-24 02:11 32.87468 -117.12803 503 ft 6 kts 144°
2026-04-24 02:11 32.87432 -117.12782 505 ft 5 kts 163°
2026-04-24 02:12 32.87407 -117.12773 506 ft 2 kts 165°
2026-04-24 02:12 32.87404 -117.12772 506 ft 0 kts 165°
2026-04-24 02:12 32.87381 -117.12768 507 ft 8 kts 178°
2026-04-24 02:12 32.87284 -117.12796 507 ft 20 kts 214°
2026-04-24 02:13 32.87257 -117.12854 505 ft 0 kts 256°
2026-04-24 02:13 32.87160 -117.13319 498 ft 138 kts 256°
2026-04-24 02:13 32.86834 -117.14869 873 ft 237 kts 255°
2026-04-24 02:13 32.86572 -117.16902 1685 ft 254 kts 270°
2026-04-24 02:14 32.86682 -117.18998 2372 ft 258 kts 277°
2026-04-24 02:14 32.86933 -117.21104 2715 ft 255 kts 279°
2026-04-24 02:14 32.87214 -117.23220 2830 ft 261 kts 280°
2026-04-24 02:14 32.87519 -117.25343 2838 ft 267 kts 280°
2026-04-24 02:15 32.87858 -117.27541 2815 ft 274 kts 281°
2026-04-24 02:15 32.88209 -117.29802 2711 ft 283 kts 281°
2026-04-24 02:15 32.88548 -117.31990 2496 ft 266 kts 281°
2026-04-24 02:15 32.88874 -117.34085 2350 ft 235 kts 281°
2026-04-24 02:16 32.89183 -117.35951 2305 ft 227 kts 281°
2026-04-24 02:16 32.89469 -117.37788 2262 ft 231 kts 281°
2026-04-24 02:16 32.89778 -117.39671 2269 ft 232 kts 281°
2026-04-24 02:16 32.90080 -117.41561 2278 ft 233 kts 281°
2026-04-24 02:17 32.90371 -117.43456 2276 ft 233 kts 274°
2026-04-24 02:17 32.89663 -117.45160 2213 ft 250 kts 233°
2026-04-24 02:17 32.88747 -117.46986 1888 ft 273 kts 248°
2026-04-24 02:17 32.88142 -117.49272 1069 ft 306 kts 258°
2026-04-24 02:18 32.87684 -117.51751 928 ft 311 kts 259°
2026-04-24 02:18 32.87269 -117.54284 991 ft 307 kts 260°
2026-04-24 02:18 32.86887 -117.56744 1331 ft 299 kts 261°
2026-04-24 02:18 32.86518 -117.59174 1463 ft 298 kts 261°
2026-04-24 02:19 32.86149 -117.61606 1509 ft 300 kts 261°
2026-04-24 02:19 32.85783 -117.64061 1528 ft 302 kts 261°
2026-04-24 02:19 32.85397 -117.66531 1538 ft 305 kts 255°
2026-04-24 02:19 32.84349 -117.68653 1542 ft 306 kts 224°
2026-04-24 02:20 32.82655 -117.70197 1527 ft 309 kts 215°
2026-04-24 02:20 32.80830 -117.71568 1522 ft 312 kts 213°
2026-04-24 02:20 32.78959 -117.72895 1521 ft 314 kts 212°
2026-04-24 02:20 32.77066 -117.74213 1519 ft 317 kts 211°
2026-04-24 02:21 32.75151 -117.75523 1497 ft 319 kts 211°
2026-04-24 02:21 32.73225 -117.76830 1492 ft 319 kts 211°
2026-04-24 02:21 32.71227 -117.77939 1504 ft 307 kts 193°
2026-04-24 02:21 32.69276 -117.77849 1515 ft 261 kts 160°
2026-04-24 02:22 32.67883 -117.76587 1524 ft 258 kts 122°
2026-04-24 02:22 32.67368 -117.74625 1548 ft 254 kts 86°
2026-04-24 02:22 32.67929 -117.72696 1565 ft 250 kts 48°
2026-04-24 02:22 32.69334 -117.71594 1576 ft 243 kts 10°
2026-04-24 02:23 32.70977 -117.71759 1605 ft 236 kts 332°
2026-04-24 02:23 32.72138 -117.73113 1615 ft 239 kts 295°
2026-04-24 02:23 32.72576 -117.74990 1603 ft 238 kts 267°
2026-04-24 02:23 32.71985 -117.76822 1623 ft 244 kts 229°
2026-04-24 02:24 32.70529 -117.77836 1623 ft 249 kts 190°
2026-04-24 02:24 32.68824 -117.77593 1629 ft 254 kts 152°
2026-04-24 02:24 32.67559 -117.76173 1630 ft 256 kts 115°
2026-04-24 02:24 32.67252 -117.74152 1634 ft 253 kts 78°
2026-04-24 02:25 32.68003 -117.72361 1638 ft 249 kts 40°
2026-04-24 02:25 32.69510 -117.71487 1639 ft 243 kts
2026-04-24 02:25 32.71119 -117.71916 1653 ft 240 kts 325°
2026-04-24 02:25 32.72417 -117.73149 1598 ft 238 kts 315°
2026-04-24 02:26 32.73594 -117.74531 1554 ft 237 kts 313°
2026-04-24 02:26 32.74735 -117.75968 1528 ft 241 kts 312°
2026-04-24 02:26 32.75855 -117.77419 1501 ft 239 kts 311°
2026-04-24 02:26 32.76958 -117.78875 1495 ft 234 kts 311°
2026-04-24 02:27 32.78058 -117.80346 1486 ft 237 kts 311°
2026-04-24 02:27 32.79135 -117.81792 1487 ft 238 kts 311°
2026-04-24 02:27 32.80231 -117.83280 1478 ft 238 kts 311°
2026-04-24 02:27 32.81299 -117.84782 1505 ft 236 kts 302°
2026-04-24 02:28 32.81899 -117.86589 1958 ft 238 kts 286°
2026-04-24 02:28 32.82300 -117.88527 2738 ft 242 kts 283°
2026-04-24 02:28 32.82661 -117.90516 3507 ft 248 kts 282°
2026-04-24 02:28 32.83012 -117.92530 4067 ft 259 kts 281°
2026-04-24 02:29 32.83366 -117.94598 4313 ft 257 kts 281°
2026-04-24 02:29 32.83714 -117.96640 4415 ft 249 kts 281°
2026-04-24 02:29 32.84059 -117.98677 4466 ft 251 kts 281°
2026-04-24 02:29 32.84403 -118.00715 4484 ft 251 kts 281°
2026-04-24 02:30 32.84748 -118.02774 4493 ft 248 kts 281°
2026-04-24 02:30 32.85082 -118.04783 4495 ft 250 kts 281°
2026-04-24 02:30 32.85420 -118.06824 4507 ft 253 kts 281°
2026-04-24 02:30 32.85753 -118.08894 4510 ft 258 kts 281°
2026-04-24 02:31 32.86086 -118.10970 4505 ft 256 kts 281°
2026-04-24 02:31 32.86419 -118.13044 4506 ft 257 kts 281°
2026-04-24 02:31 32.86751 -118.15116 4513 ft 256 kts 281°
2026-04-24 02:31 32.87083 -118.17184 4505 ft 255 kts 281°
2026-04-24 02:32 32.87416 -118.19258 4505 ft 255 kts 281°
2026-04-24 02:32 32.87753 -118.21327 4502 ft 255 kts 281°
2026-04-24 02:32 32.88091 -118.23396 4508 ft 254 kts 281°
2026-04-24 02:32 32.88428 -118.25459 4509 ft 253 kts 281°
2026-04-24 02:33 32.88758 -118.27486 4510 ft 253 kts 281°
2026-04-24 02:33 32.89096 -118.29551 4512 ft 256 kts 281°
2026-04-24 02:33 32.89437 -118.31622 4510 ft 256 kts 281°
2026-04-24 02:33 32.89779 -118.33699 4510 ft 255 kts 281°
2026-04-24 02:34 32.90122 -118.35775 4505 ft 255 kts 281°
2026-04-24 02:34 32.90455 -118.37827 4508 ft 254 kts 282°
2026-04-24 02:34 32.90772 -118.39879 4507 ft 253 kts 281°
2026-04-24 02:34 32.91090 -118.41958 4504 ft 256 kts 281°
2026-04-24 02:35 32.91399 -118.44008 4512 ft 251 kts 281°
2026-04-24 02:35 32.91713 -118.46079 4519 ft 261 kts 281°
2026-04-24 02:35 32.92030 -118.48129 4525 ft 251 kts 281°
2026-04-24 02:35 32.92349 -118.50200 4534 ft 255 kts 281°
2026-04-24 02:36 32.92676 -118.52289 4534 ft 256 kts 281°
2026-04-24 02:36 32.92998 -118.54356 4533 ft 254 kts 281°
2026-04-24 02:36 32.93315 -118.56417 4520 ft 253 kts 281°
2026-04-24 02:36 32.93450 -118.58512 4516 ft 257 kts 268°
2026-04-24 02:37 32.93285 -118.60623 3922 ft 253 kts 264°
2026-04-24 02:37 32.93043 -118.62681 3182 ft 250 kts 262°
2026-04-24 02:37 32.92774 -118.64691 2436 ft 241 kts 262°
2026-04-24 02:37 32.92495 -118.66623 1903 ft 235 kts 262°
2026-04-24 02:38 32.92190 -118.68487 1698 ft 236 kts 261°
2026-04-24 02:38 32.91866 -118.70370 1600 ft 232 kts 261°
2026-04-24 02:38 32.91538 -118.72272 1546 ft 232 kts 261°
2026-04-24 02:38 32.91201 -118.74175 1526 ft 235 kts 261°
2026-04-24 02:39 32.90864 -118.76073 1502 ft 236 kts 261°
2026-04-24 02:39 32.90521 -118.77996 1517 ft 239 kts 261°
2026-04-24 02:39 32.90191 -118.79920 1520 ft 235 kts 261°
2026-04-24 02:39 32.89877 -118.81838 1549 ft 241 kts 262°
2026-04-24 02:40 32.89610 -118.83795 1480 ft 236 kts 272°
2026-04-24 02:40 32.90271 -118.85354 1405 ft 217 kts 326°
2026-04-24 02:40 32.90889 -118.86825 1422 ft 220 kts 248°
2026-04-24 02:40 32.89796 -118.88332 1426 ft 268 kts 227°
2026-04-24 02:41 32.88114 -118.89513 1456 ft 301 kts 189°
2026-04-24 02:41 32.86167 -118.88781 1533 ft 306 kts 134°
2026-04-24 02:41 32.85753 -118.86461 1523 ft 304 kts 53°
2026-04-24 02:41 32.87602 -118.85913 1239 ft 311 kts 353°
2026-04-24 02:42 32.89943 -118.86041 1053 ft 354 kts 359°
2026-04-24 02:42 32.91265 -118.87221 1160 ft 241 kts 220°
2026-04-24 02:42 32.89833 -118.87372 1033 ft 205 kts 184°
2026-04-24 02:42 32.88478 -118.87378 985 ft 190 kts 184°
2026-04-24 02:43 32.87494 -118.86608 951 ft 180 kts 88°
2026-04-24 02:43 32.88278 -118.86014 584 ft 165 kts 348°
2026-04-24 02:43 32.89294 -118.86207 150 ft 136 kts 346°
2026-04-24 02:43 32.89691 -118.86280 80 ft 6 kts 357°
2026-04-24 02:44 32.89698 -118.86232 86 ft 2 kts 160°